Weather History for Munising, MI

Change the Weather History Date:

Thursday, October 10, 2013

  Actual Average (KISQ) Record (KISQ)
Temperature  
Mean Temperature 62 °F -  
Max Temperature 73 °F 52 °F 75 °F (1960)
Min Temperature 50 °F 37 °F 24 °F (1952)
Degree Days  
Heating Degree Days 4    
Growing Degree Days 12 (Base 50)    
Moisture  
Dew Point 48 °F    
Average Humidity 67    
Maximum Humidity 90    
Minimum Humidity 37    
Precipitation  
Precipitation 0.00 in - - ()
Sea Level Pressure  
Sea Level Pressure 30.13 in    
Wind  
Wind Speed 7 mph (South)    
Max Wind Speed 10 mph    
Max Gust Speed 18 mph    
Averages and records for this station are not official NWS values.
T = Trace of Precipitation, MM = Missing Value Source: NWS Daily Summary

Daily Weather History Graph

Daily Weather History Graph

Search for Another Location

Airport:

Trip Planner

Search our weather history database for the weather conditions in past years. The results will help you decide how hot, cold, wet, or windy it might be!

Date:

Astronomy

Oct. 10, 2013 Rise Set
Actual Time 7:57 AM EDT 7:08 PM EDT
Civil Twilight 7:27 AM EDT 7:38 PM EDT
Nautical Twilight 6:52 AM EDT 8:13 PM EDT
Astronomical Twilight 6:17 AM EDT 8:48 PM EDT
Moon 2:01 PM EDT (10/10) 11:33 PM EDT (10/10)
Length of Visible Light 12h 11m
Length of Day
11h 11m
Waxing Crescent, 35% of the Moon is Illuminated
Oct 10
Waxing Crescent
Oct 11
First Quarter
Oct 18
Full
Oct 26
Last Quarter
Nov 3
New

Hourly Weather History & Observations

Time (EDT) Temp. Dew Point Humidity Pressure Visibility Wind Dir Wind Speed Gust Speed Precip Events Conditions
12:56 AM 57.9 °F 46.0 °F 65% 30.12 in - SSW 10.4 mph 18.4 mph N/A   Unknown
1:56 AM 57.0 °F 46.0 °F 67% 30.14 in - South 8.1 mph - N/A   Unknown
2:56 AM 54.0 °F 46.0 °F 75% 30.15 in - South 4.6 mph - N/A   Unknown
3:56 AM 52.0 °F 46.0 °F 80% 30.16 in - Calm Calm - N/A   Unknown
4:56 AM 52.0 °F 46.9 °F 83% 30.15 in - SSW 6.9 mph - N/A   Unknown
5:56 AM 52.0 °F 46.9 °F 83% 30.16 in - SSW 8.1 mph - N/A   Unknown
6:56 AM 51.1 °F 46.0 °F 83% 30.16 in - SSW 8.1 mph - N/A   Unknown
7:56 AM 50.0 °F 46.0 °F 86% 30.16 in - SSW 8.1 mph - N/A   Unknown
8:56 AM 52.0 °F 46.9 °F 83% 30.16 in - SSW 8.1 mph - N/A   Unknown
9:56 AM 57.0 °F 46.9 °F 69% 30.16 in - SSW 10.4 mph - N/A   Unknown
10:56 AM 61.0 °F 48.0 °F 62% 30.16 in - South 10.4 mph - N/A   Unknown
11:56 AM 66.0 °F 48.9 °F 54% 30.15 in - SSW 6.9 mph - N/A   Unknown
12:56 PM 69.1 °F 48.9 °F 49% 30.14 in - South 10.4 mph - N/A   Unknown
1:56 PM 71.1 °F 45.0 °F 39% 30.12 in - SSW 9.2 mph - N/A   Unknown
2:56 PM 72.0 °F 45.0 °F 38% 30.11 in - SSE 5.8 mph - N/A   Unknown
3:56 PM 73.0 °F 45.0 °F 37% 30.10 in - South 8.1 mph - N/A   Unknown
4:56 PM 72.0 °F 48.0 °F 43% 30.09 in - South 8.1 mph 16.1 mph N/A   Unknown
5:56 PM 68.0 °F 46.9 °F 47% 30.09 in - South 6.9 mph - N/A   Unknown
6:56 PM 63.0 °F 48.9 °F 60% 30.10 in - South 5.8 mph - N/A   Unknown
7:56 PM 59.0 °F 52.0 °F 78% 30.11 in - South 5.8 mph - N/A   Unknown
8:56 PM 57.0 °F 50.0 °F 77% 30.10 in - SSW 6.9 mph - N/A   Unknown
9:56 PM 55.9 °F 51.1 °F 84% 30.12 in - SSW 4.6 mph - N/A   Unknown
10:56 PM 54.0 °F 51.1 °F 90% 30.11 in - SSW 3.5 mph - N/A   Unknown
11:56 PM 54.0 °F 50.0 °F 86% 30.11 in - Variable 3.5 mph - N/A   Unknown